Location: Coffee Creek Observatory
(38.8077°N, 94.7179°W)
Time: 15:18:15
(UTC-05:00)

Amateur Radio Satellites - All Passes

Search period start: 18 August 2017 14:48
Search period end: 19 August 2017 14:48
Location: Coffee Creek Observatory, 38.8077°N, 94.7179°W

Satellite Date Start Highest point End Downlink Frequencies (MHz)
Time Altitude Azimuth
BEESAT 3 18 Aug 14:56:04 14:59:45 34° 53° (NE) 15:03:21 437.485
BEESAT 2 18 Aug 15:03:59 15:06:33 16° 46° (NE) 15:09:05 435.950
ITAMSAT 1 18 Aug 15:06:14 15:10:26 25° 66° (ENE) 15:14:38 435.822/435.867
UKube-1 18 Aug 15:10:19 15:14:38 82° 284° (WNW) 15:18:56 .
VELOX 1 18 Aug 15:17:00 15:19:19 14° 296° (WNW) 15:21:38 145.980
DX 1 18 Aug 15:26:22 15:30:20 35° 290° (WNW) 15:34:15 434.975-435.025
Oscar 19 18 Aug 15:34:33 15:36:41 12° 270° (W) 15:38:51 437.125/150
Tancredo 1 18 Aug 15:38:23 15:39:22 11° 18° (NNE) 15:40:21 437.200
50 SAT 18 Aug 15:43:02 15:43:26 10° 294° (WNW) 15:43:51 437.505
AO-7 18 Aug 15:55:09 16:03:33 89° 72° (ENE) 16:11:58 .
ISS 18 Aug 16:00:20 16:00:42 10° 10° (N) 16:01:03 437.550
BEESAT 18 Aug 16:11:15 16:15:50 45° 100° (E) 16:20:22 436.000
nSIGHT-1 18 Aug 16:11:51 16:12:51 11° 13° (NNE) 16:13:50 .
SRMSAT 18 Aug 16:14:05 16:15:33 11° 175° (S) 16:17:01 437.500
MOZHAYETS 4 18 Aug 16:19:31 16:23:58 47° 99° (E) 16:28:26
AO-85 18 Aug 16:19:36 16:23:48 46° 243° (WSW) 16:28:18 145.980
RS-15 18 Aug 16:24:33 16:33:04 20° 347° (NNW) 16:41:29 29.354- 29.394
CUBESAT XI-V 18 Aug 16:33:49 16:36:01 13° 91° (E) 16:38:13 437.345
BEESAT 3 18 Aug 16:34:15 16:37:02 19° 249° (WSW) 16:39:47 437.485
YUBILEINY 18 Aug 16:40:29 16:49:08 64° 92° (E) 16:57:45 435.215
BEESAT 2 18 Aug 16:40:39 16:44:35 51° 243° (WSW) 16:48:27 435.950
ITUPSAT 1 18 Aug 16:43:34 16:48:21 84° 287° (WNW) 16:53:09 437.325
ITAMSAT 1 18 Aug 16:44:52 16:49:41 37° 262° (W) 16:54:30 435.822/435.867
Tancredo 1 18 Aug 17:12:15 17:15:06 55° 35° (NE) 17:17:57 437.200
DOVE 4 18 Aug 17:24:04 17:29:00 41° 72° (ENE) 17:33:54 437.250
ISS 18 Aug 17:35:08 17:38:02 28° 29° (NNE) 17:40:54 437.550
STARS 18 Aug 17:40:02 17:40:35 10° 91° (E) 17:41:08 437.465
XW-2C 18 Aug 17:40:34 17:42:41 15° 67° (ENE) 17:44:49 145.795 - 145.815
nSIGHT-1 18 Aug 17:46:56 17:49:59 36° 32° (NNE) 17:52:59 .
BEESAT 18 Aug 17:49:59 17:53:13 19° 295° (WNW) 17:56:29 436.000
AO-7 18 Aug 17:52:08 17:57:13 17° 269° (W) 18:02:20 .
XW-2F 18 Aug 17:54:14 17:57:00 20° 69° (ENE) 17:59:47 145.980 - 146.000
MOZHAYETS 4 18 Aug 17:57:50 18:00:44 17° 295° (WNW) 18:03:37
SRMSAT 18 Aug 18:02:40 18:03:46 10° 186° (S) 18:04:53 437.500
CUBESAT XI-V 18 Aug 18:09:05 18:13:44 58° 286° (WNW) 18:18:21 437.345
HO-68 18 Aug 18:22:59 18:28:25 24° 60° (ENE) 18:33:52 435.675
KAITUO 1B 18 Aug 18:23:15 18:26:39 36° 73° (ENE) 18:30:04 145.475/437.950
KKS-1 18 Aug 18:26:54 18:31:21 84° 287° (WNW) 18:35:46 437.445
CUTE-I 18 Aug 18:34:06 18:39:23 63° 73° (ENE) 18:44:41 437.470
LilacSat-2 18 Aug 18:35:15 18:39:01 79° 77° (ENE) 18:42:49 437.200
YUBILEINY 18 Aug 18:39:25 18:46:30 27° 291° (WNW) 18:53:39 435.215
RS-15 18 Aug 18:42:30 18:51:53 24° 24° (NNE) 19:00:55 29.354- 29.394
XW-2D 18 Aug 18:42:50 18:46:35 85° 258° (WSW) 18:50:22 145.860 - 145.880
Tancredo 1 18 Aug 18:49:09 18:49:58 11° 231° (SW) 18:50:47 437.200
CUTE 1.7 + AOD 2 18 Aug 18:49:51 18:52:46 18° 67° (ENE) 18:55:43 437.475
XW-2B 18 Aug 18:53:52 18:57:34 63° 259° (W) 19:01:18 145.730 - 145.750
NUDT-PHONESAT 18 Aug 18:59:45 19:03:23 73° 258° (WSW) 19:07:05 437.300
DOVE 4 18 Aug 19:02:34 19:06:45 23° 266° (W) 19:10:55 437.250
XW-2A 18 Aug 19:11:20 19:12:47 12° 67° (ENE) 19:14:13 145.665 - 145.685
ISS 18 Aug 19:11:34 19:14:30 31° 226° (SW) 19:17:24 437.550
STARS 18 Aug 19:12:59 19:17:19 64° 285° (WNW) 19:21:36 437.465
XW-2C 18 Aug 19:13:09 19:16:33 34° 262° (W) 19:20:01 145.795 - 145.815
nSIGHT-1 18 Aug 19:23:39 19:26:12 22° 228° (SW) 19:28:45 .
XW-2F 18 Aug 19:27:56 19:30:59 24° 264° (W) 19:34:04 145.980 - 146.000
SEEDS 18 Aug 19:41:30 19:45:28 43° 73° (ENE) 19:49:29 437.485
O/OREOS (USA 219) 18 Aug 19:51:08 19:54:56 25° 60° (ENE) 19:58:43 437.305
KAITUO 1B 18 Aug 19:59:02 20:00:46 13° 268° (W) 20:02:32 145.475/437.950
UWE-3 18 Aug 20:07:04 20:11:00 39° 73° (ENE) 20:14:54 435.000/436.395/437.385
HO-68 18 Aug 20:08:27 20:15:33 65° 257° (WSW) 20:22:40 435.675
CUBEBUG 2 18 Aug 20:08:32 20:12:51 76° 78° (ENE) 20:17:05 437.445
CUTE-I 18 Aug 20:16:45 20:19:49 15° 269° (W) 20:22:53 437.470
CUTE 1.7 + AOD 2 18 Aug 20:24:28 20:28:19 35° 263° (W) 20:32:14 437.475
Oscar 11 18 Aug 20:27:55 20:31:24 25° 69° (ENE) 20:34:54 .
AAUSAT CUBESAT 2 18 Aug 20:34:33 20:38:41 81° 77° (ENE) 20:42:53 437.432
XW-2A 18 Aug 20:42:14 20:45:12 30° 262° (W) 20:48:11 145.665 - 145.685
ZACube-1 18 Aug 20:52:20 20:56:29 72° 76° (ENE) 21:00:37 437.345
STRAND 1 18 Aug 20:54:39 20:59:47 90° 306° (NW) 21:04:53 437.568
RS-15 18 Aug 20:55:28 21:07:28 64° 53° (NE) 21:18:48 29.354- 29.394
AO-73 18 Aug 21:15:07 21:19:16 68° 259° (W) 21:23:23 145.935
SEEDS 18 Aug 21:19:05 21:21:21 14° 268° (W) 21:23:38 437.485
O/OREOS (USA 219) 18 Aug 21:30:22 21:34:17 29° 257° (WSW) 21:38:13 437.305
UWE-3 18 Aug 21:45:07 21:47:36 15° 267° (W) 21:50:05 435.000/436.395/437.385
EO-88 18 Aug 21:48:03 21:50:59 24° 71° (ENE) 21:53:58 145.990 - 145.960
FO-29 18 Aug 21:49:49 21:54:07 23° 92° (E) 21:58:12 435.910
DELFI C3 18 Aug 22:03:08 22:07:05 70° 76° (ENE) 22:11:05 145.870
Oscar 11 18 Aug 22:03:48 22:07:24 26° 264° (W) 22:11:04 .
TIGRISAT 18 Aug 22:07:31 22:08:53 11° 91° (E) 22:10:15 435.000
Max Valier Satellite 18 Aug 22:21:19 22:24:58 90° 80° (E) 22:28:38 145.860
PRISM 18 Aug 22:22:53 22:24:22 12° 92° (E) 22:25:52 437.425
STRAND 1 18 Aug 22:37:01 22:38:10 11° 300° (WNW) 22:39:19 437.568
ESTCUBE 1 18 Aug 22:43:35 22:45:29 13° 63° (ENE) 22:47:24 437.505/2401.250
UNISAT 6 18 Aug 23:05:47 23:10:03 60° 101° (E) 23:14:22 437.425
RS-15 18 Aug 23:08:51 23:19:10 37° 255° (WSW) 23:29:02 29.354- 29.394
PCSat 18 Aug 23:16:19 23:21:21 40° 111° (ESE) 23:26:24 145.827
EO-88 18 Aug 23:22:00 23:24:36 19° 266° (W) 23:27:14 145.990 - 145.960
SO-50 18 Aug 23:23:45 23:27:09 21° 111° (ESE) 23:30:33 436.795
LO-87 18 Aug 23:25:20 23:28:48 49° 75° (ENE) 23:32:18 145.935 - 145.965
FO-29 18 Aug 23:34:13 23:39:27 40° 291° (WNW) 23:44:19 435.910
TIGRISAT 18 Aug 23:41:40 23:45:53 56° 285° (WNW) 23:50:09 435.000
PRISM 18 Aug 23:55:54 23:59:55 50° 287° (WNW) 00:03:53 437.425
AIST 2D 18 Aug 23:59:13 00:02:11 24° 96° (E) 00:05:08 435.315
NANOSAT C BR1 19 Aug 00:10:27 00:12:12 12° 92° (E) 00:13:58 145.865
POLYITAN 1 19 Aug 00:12:15 00:14:40 15° 93° (E) 00:17:04 437.675
ESTCUBE 1 19 Aug 00:17:16 00:21:42 63° 258° (WSW) 00:26:13 437.505/2401.250
QB50P2 19 Aug 00:26:22 00:29:48 24° 96° (E) 00:33:14 145.880/145.840
EO-79 19 Aug 00:28:01 00:31:21 23° 95° (E) 00:34:41 145.935-145.965
VELOX 1 19 Aug 00:34:42 00:38:51 39° 71° (ENE) 00:43:00 145.980
50 SAT 19 Aug 00:39:14 00:40:43 12° 67° (ENE) 00:42:11 437.505
UNISAT 6 19 Aug 00:44:42 00:46:15 12° 296° (WNW) 00:47:49 437.425
DX 1 19 Aug 00:45:52 00:48:24 15° 65° (ENE) 00:50:58 434.975-435.025
PCSat 19 Aug 01:00:10 01:04:49 28° 308° (NW) 01:09:30 145.827
SPROUT 19 Aug 01:00:20 01:04:36 85° 257° (WSW) 01:08:53 437.525
DUCHIFAT 1 19 Aug 01:00:27 01:04:26 42° 99° (E) 01:08:24 145.980
SO-50 19 Aug 01:03:07 01:07:21 38° 307° (NW) 01:11:35 436.795
M-CUBED/EXP-1 PRIME 19 Aug 01:05:40 01:10:07 79° 288° (WNW) 01:14:12 437.505
BUGSAT 1 19 Aug 01:11:32 01:13:38 14° 93° (E) 01:15:44 437.445
AIST 2D 19 Aug 01:32:45 01:35:11 18° 291° (WNW) 01:37:36 435.315
NANOSAT C BR1 19 Aug 01:44:08 01:48:10 49° 287° (WNW) 01:52:13 145.865
POLYITAN 1 19 Aug 01:46:39 01:50:36 41° 288° (WNW) 01:54:34 437.675
QB50P2 19 Aug 02:02:02 02:05:30 26° 291° (WNW) 02:08:59 145.880/145.840
UKube-1 19 Aug 02:02:59 02:07:16 70° 75° (ENE) 02:11:36 .
EO-79 19 Aug 02:03:31 02:07:04 27° 290° (WNW) 02:10:36 145.935-145.965
Oscar 19 19 Aug 02:05:06 02:09:30 27° 95° (E) 02:13:52 437.125/150
50 SAT 19 Aug 02:09:56 02:13:03 33° 262° (W) 02:16:11 437.505
VELOX 1 19 Aug 02:12:25 02:15:25 18° 267° (W) 02:18:26 145.980
ITUPSAT 1 19 Aug 02:15:35 02:16:25 10° 60° (ENE) 02:17:15 437.325
DX 1 19 Aug 02:19:57 02:24:10 47° 260° (W) 02:28:26 434.975-435.025
DUCHIFAT 1 19 Aug 02:37:18 02:39:44 15° 294° (WNW) 02:42:09 145.980
BUGSAT 1 19 Aug 02:45:24 02:49:09 40° 288° (WNW) 02:52:56 437.445
YUBILEINY 19 Aug 02:52:53 03:00:12 29° 70° (ENE) 03:07:27 435.215
NO-84 19 Aug 02:56:11 02:59:01 51° 318° (NW) 03:01:48 435.350 FM
Gurwin Techsat 1B 19 Aug 02:59:34 03:04:50 59° 101° (E) 03:10:03 435.225
BEESAT 19 Aug 03:16:12 03:20:43 45° 72° (ENE) 03:25:15 436.000
MOZHAYETS 4 19 Aug 03:20:01 03:24:13 38° 71° (ENE) 03:28:27
CUBESAT XI-V 19 Aug 03:36:46 03:38:28 12° 62° (ENE) 03:40:12 437.345
Oscar 19 19 Aug 03:44:08 03:48:48 34° 291° (WNW) 03:53:27 437.125/150
ITUPSAT 1 19 Aug 03:48:45 03:53:30 84° 255° (WSW) 03:58:18 437.325
AO-7 19 Aug 03:58:56 04:06:10 32° 97° (E) 04:13:19 .
Gurwin Techsat 1B 19 Aug 04:40:52 04:44:16 18° 297° (WNW) 04:47:39 435.225
YUBILEINY 19 Aug 04:48:59 04:57:26 58° 269° (W) 05:05:52 435.215
BEESAT 19 Aug 04:55:34 04:58:41 17° 267° (W) 05:01:48 436.000
MOZHAYETS 4 19 Aug 04:58:19 05:01:29 19° 267° (W) 05:04:41
ITAMSAT 1 19 Aug 04:58:26 05:03:38 84° 105° (ESE) 05:08:48 435.822/435.867
CUBESAT XI-V 19 Aug 05:10:35 05:15:12 70° 259° (WSW) 05:19:53 437.345
KKS-1 19 Aug 05:23:10 05:27:38 75° 75° (ENE) 05:32:07 437.445
AO-7 19 Aug 05:51:09 05:59:11 55° 294° (WNW) 06:07:10 .
STARS 19 Aug 06:07:44 06:12:09 86° 260° (W) 06:16:34 437.465
XW-2D 19 Aug 06:18:47 06:19:50 11° 91° (E) 06:20:51 145.860 - 145.880
BEESAT 3 19 Aug 06:21:02 06:25:02 87° 308° (NW) 06:29:05 437.485
XW-2B 19 Aug 06:28:46 06:30:54 14° 93° (E) 06:33:01 145.730 - 145.750
BEESAT 2 19 Aug 06:30:22 06:33:59 34° 115° (ESE) 06:37:41 435.950
AO-85 19 Aug 06:32:56 06:36:53 77° 119° (ESE) 06:40:47 145.980
NUDT-PHONESAT 19 Aug 06:33:15 06:34:26 11° 92° (E) 06:35:35 437.300
STRAND 1 19 Aug 06:33:17 06:35:43 14° 61° (ENE) 06:38:09 437.568
ITAMSAT 1 19 Aug 06:40:27 06:42:20 12° 300° (WNW) 06:44:14 435.822/435.867
XW-2C 19 Aug 06:46:50 06:50:01 24° 96° (E) 06:53:11 145.795 - 145.815
CUTE-I 19 Aug 06:52:56 06:57:25 27° 95° (E) 07:01:52 437.470
XW-2F 19 Aug 07:00:27 07:03:58 34° 97° (E) 07:07:28 145.980 - 146.000
DOVE 4 19 Aug 07:02:04 07:06:38 66° 285° (WNW) 07:10:54 437.250
KAITUO 1B 19 Aug 07:28:57 07:32:43 64° 100° (E) 07:36:29 145.475/437.950
HO-68 19 Aug 07:38:12 07:44:03 27° 95° (E) 07:49:52 435.675
LilacSat-2 19 Aug 07:43:42 07:47:29 55° 285° (WNW) 07:51:16 437.200
AO-7 19 Aug 07:47:42 07:50:05 11° 315° (NW) 07:52:28 .
XW-2D 19 Aug 07:50:32 07:54:14 46° 286° (WNW) 07:57:55 145.860 - 145.880
SO-50 19 Aug 07:55:45 07:58:43 17° 44° (NE) 08:01:41 436.795
CUBEBUG 2 19 Aug 08:01:23 08:04:04 16° 93° (E) 08:06:44 437.445
XW-2B 19 Aug 08:01:40 08:05:11 35° 287° (WNW) 08:08:42 145.730 - 145.750
FO-29 19 Aug 08:02:05 08:05:26 14° 58° (ENE) 08:08:40 435.910
BEESAT 3 19 Aug 08:02:36 08:03:13 10° 319° (NW) 08:03:51 437.485
NUDT-PHONESAT 19 Aug 08:04:56 08:08:30 42° 286° (WNW) 08:12:04 437.300
PCSat 19 Aug 08:05:29 08:10:03 27° 51° (NE) 08:14:34 145.827
XW-2A 19 Aug 08:05:39 08:07:41 15° 94° (E) 08:09:43 145.665 - 145.685
BEESAT 2 19 Aug 08:08:44 08:11:49 21° 312° (NW) 08:14:57 435.950
STRAND 1 19 Aug 08:09:09 08:14:15 73° 257° (WSW) 08:19:23 437.568
CUTE 1.7 + AOD 2 19 Aug 08:10:06 08:14:11 41° 98° (E) 08:18:14 437.475
AO-85 19 Aug 08:16:44 08:17:46 11° 318° (NW) 08:18:48 145.980
AAUSAT CUBESAT 2 19 Aug 08:19:22 08:21:32 14° 92° (E) 08:23:42 437.432
XW-2C 19 Aug 08:21:08 08:24:03 21° 291° (WNW) 08:26:59 145.795 - 145.815
CUTE-I 19 Aug 08:32:40 08:37:28 35° 291° (WNW) 08:42:14 437.470
XW-2F 19 Aug 08:35:29 08:37:47 16° 292° (WNW) 08:40:06 145.980 - 146.000
ZACube-1 19 Aug 08:42:47 08:45:16 15° 93° (E) 08:47:48 437.345
SEEDS 19 Aug 09:01:38 09:05:54 79° 285° (WNW) 09:10:09 437.485
AO-73 19 Aug 09:04:22 09:07:50 24° 95° (E) 09:11:20 145.935
HO-68 19 Aug 09:25:08 09:32:04 55° 291° (WNW) 09:38:59 435.675
NO-84 19 Aug 09:29:54 09:32:53 42° 41° (NE) 09:36:05 435.350 FM
UWE-3 19 Aug 09:33:24 09:37:37 74° 284° (WNW) 09:41:56 435.000/436.395/437.385
SO-50 19 Aug 09:35:03 09:39:34 63° 241° (WSW) 09:44:08 436.795
CUBEBUG 2 19 Aug 09:36:55 09:40:47 37° 287° (WNW) 09:44:44 437.445
XW-2A 19 Aug 09:37:34 09:40:25 25° 288° (WNW) 09:43:15 145.665 - 145.685
Tancredo 1 19 Aug 09:38:22 09:40:44 22° 133° (SE) 09:43:06 437.200
FO-29 19 Aug 09:41:47 09:49:28 73° 74° (ENE) 09:56:30 435.910
CUTE 1.7 + AOD 2 19 Aug 09:46:57 09:49:39 16° 294° (WNW) 09:52:20 437.475
PCSat 19 Aug 09:48:28 09:53:35 44° 249° (WSW) 09:58:41 145.827
Oscar 11 19 Aug 09:51:15 09:55:34 60° 100° (E) 09:59:52 .
AAUSAT CUBESAT 2 19 Aug 09:53:13 09:57:12 44° 287° (WNW) 10:01:09 437.432
O/OREOS (USA 219) 19 Aug 10:01:57 10:06:00 35° 104° (ESE) 10:10:04 437.305
UNISAT 6 19 Aug 10:03:13 10:07:22 44° 73° (ENE) 10:11:27 437.425
ISS 19 Aug 10:15:11 10:17:08 15° 130° (SE) 10:19:05 437.550
ZACube-1 19 Aug 10:17:41 10:21:43 42° 287° (WNW) 10:25:50 437.345
M-CUBED/EXP-1 PRIME 19 Aug 10:18:18 10:19:49 12° 56° (NE) 10:21:20 437.505
nSIGHT-1 19 Aug 10:25:25 10:27:53 20° 131° (SE) 10:30:23 .
TIGRISAT 19 Aug 10:38:38 10:43:00 79° 258° (WSW) 10:47:18 435.000
AO-73 19 Aug 10:40:24 10:44:00 27° 290° (WNW) 10:47:41 145.935
PRISM 19 Aug 10:43:07 10:47:16 89° 257° (WSW) 10:51:28 437.425
EO-88 19 Aug 10:50:45 10:54:10 36° 98° (E) 10:57:35 145.990 - 145.960
POLYITAN 1 19 Aug 11:05:56 11:06:13 10° 63° (ENE) 11:06:31 437.675
NO-84 19 Aug 11:08:04 11:10:05 15° 233° (SW) 11:12:10 435.350 FM
Tancredo 1 19 Aug 11:13:14 11:15:51 29° 329° (NNW) 11:18:28 437.200
DELFI C3 19 Aug 11:15:53 11:19:48 57° 285° (WNW) 11:23:41 145.870
RS-15 19 Aug 11:16:09 11:27:23 46° 108° (ESE) 11:38:47 29.354- 29.394
QB50P2 19 Aug 11:18:25 11:21:02 16° 66° (ENE) 11:23:39 145.880/145.840
EO-79 19 Aug 11:19:59 11:22:26 15° 66° (ENE) 11:24:53 145.935-145.965
Max Valier Satellite 19 Aug 11:26:03 11:29:39 53° 285° (WNW) 11:33:16 145.860
FO-29 19 Aug 11:29:21 11:34:50 21° 268° (W) 11:40:04 435.910
Oscar 11 19 Aug 11:29:25 11:31:10 12° 296° (WNW) 11:32:54 .
UNISAT 6 19 Aug 11:41:48 11:44:15 15° 267° (W) 11:46:42 437.425
O/OREOS (USA 219) 19 Aug 11:42:06 11:45:29 21° 301° (WNW) 11:48:53 437.305
M-CUBED/EXP-1 PRIME 19 Aug 11:49:02 11:53:28 82° 253° (WSW) 11:58:07 437.505
ISS 19 Aug 11:50:05 11:53:18 52° 325° (NW) 11:56:31 437.550
DUCHIFAT 1 19 Aug 11:51:04 11:54:34 26° 70° (ENE) 11:58:03 145.980
nSIGHT-1 19 Aug 12:01:00 12:04:05 39° 327° (NNW) 12:07:11 .
AIST 2D 19 Aug 12:04:26 12:07:51 59° 260° (W) 12:11:18 435.315
ESTCUBE 1 19 Aug 12:11:11 12:15:10 29° 96° (E) 12:19:07 437.505/2401.250
EO-88 19 Aug 12:25:41 12:27:29 13° 293° (WNW) 12:29:18 145.990 - 145.960
LO-87 19 Aug 12:26:31 12:30:04 77° 101° (ESE) 12:33:35 145.935 - 145.965
NANOSAT C BR1 19 Aug 12:34:14 12:38:26 83° 257° (WSW) 12:42:39 145.865
POLYITAN 1 19 Aug 12:37:14 12:41:25 68° 259° (WSW) 12:45:36 437.675
Gurwin Techsat 1B 19 Aug 12:44:37 12:45:31 10° 58° (ENE) 12:46:26 435.225
SPROUT 19 Aug 12:48:12 12:51:02 17° 93° (E) 12:53:51 437.525
QB50P2 19 Aug 12:52:31 12:56:29 40° 261° (W) 13:00:27 145.880/145.840
EO-79 19 Aug 12:53:49 12:57:50 42° 261° (W) 13:01:51 145.935-145.965
Oscar 19 19 Aug 13:20:35 13:25:13 35° 69° (ENE) 13:29:52 437.125/150
DUCHIFAT 1 19 Aug 13:26:49 13:30:10 23° 265° (W) 13:33:31 145.980
RS-15 19 Aug 13:27:42 13:39:40 56° 310° (NW) 13:51:46 29.354- 29.394
ISS 19 Aug 13:28:46 13:30:23 13° 343° (NNW) 13:31:59 437.550
BUGSAT 1 19 Aug 13:33:02 13:37:08 74° 257° (WSW) 13:41:13 437.445
50 SAT 19 Aug 13:33:44 13:35:24 13° 93° (E) 13:37:04 437.505
nSIGHT-1 19 Aug 13:40:01 13:41:11 11° 346° (NNW) 13:42:21 .
ESTCUBE 1 19 Aug 13:48:08 13:51:49 25° 292° (WNW) 13:55:30 437.505/2401.250
UKube-1 19 Aug 13:53:08 13:54:57 12° 92° (E) 13:56:45 .
VELOX 1 19 Aug 14:01:47 14:06:14 85° 286° (WNW) 14:10:38 145.980
JUGNU 19 Aug 14:04:29 14:06:10 11° 182° (S) 14:07:51 437.505
DX 1 19 Aug 14:09:26 14:13:18 30° 97° (E) 14:17:07 434.975-435.025
Gurwin Techsat 1B 19 Aug 14:19:17 14:24:35 83° 75° (ENE) 14:29:56 435.225
SPROUT 19 Aug 14:23:09 14:27:02 36° 288° (WNW) 14:30:54 437.525
ITAMSAT 1 19 Aug 14:38:49 14:41:25 14° 61° (ENE) 14:44:02 435.822/435.867
BEESAT 3 19 Aug 14:39:08 14:42:48 34° 53° (NE) 14:46:24 437.485
